Grand Forks AFB, ND

3:47 AM CST on November 22, 2017 (GMT -0600)
Grand Forks Air Force Base

Weather History for KRDR - May, 2013

Change the Weather History Date:

Thursday, May 9, 2013

  Actual Average Record
Temperature  
Mean Temperature 47 °F -  
Max Temperature 62 °F 60 °F 85 °F (2007)
Min Temperature 32 °F 38 °F 26 °F (1997)
Degree Days  
Heating Degree Days 18    
Moisture  
Dew Point 25 °F    
Average Humidity 44    
Maximum Humidity 77    
Minimum Humidity 19    
Precipitation  
Precipitation 0.00 in - - ()
Sea Level Pressure  
Sea Level Pressure 30.24 in    
Wind  
Wind Speed 15 mph (NE)    
Max Wind Speed 22 mph    
Max Gust Speed 30 mph    
Visibility 10 miles    
Events      
Averages and records for this station are not official NWS values.
T = Trace of Precipitation, MM = Missing Value Source: NWS Daily Summary

Daily Weather History Graph

Daily Weather History Graph

Search for Another Location

Airport or City:

Trip Planner

Search our weather history database for the weather conditions in past years. The results will help you decide how hot, cold, wet, or windy it might be!

Date:

Astronomy

May. 09, 2013 Rise Set
Actual Time 5:58 AM CDT 8:54 PM CDT
Civil Twilight 5:22 AM CDT 9:30 PM CDT
Nautical Twilight 4:36 AM CDT 10:16 PM CDT
Astronomical Twilight 3:40 AM CDT 11:13 PM CDT
Moon 5:46 AM CDT (5/9) 8:50 PM CDT (5/9)
Length of Visible Light 16h 07m
Length of Day
14h 55m
Waning Crescent, 0% of the Moon is Illuminated
May 9
Waning Crescent
May 9
New
May 17
First Quarter
May 24
Full
May 31
Last Quarter

Hourly Weather History & Observations

Time (CDT) Temp. Windchill Dew Point Humidity Pressure Visibility Wind Dir Wind Speed Gust Speed Precip Events Conditions
12:58 AM 40.1 °F 31.6 °F 27.5 °F 61% 30.21 in 10.0 mi North 16.1 mph - N/A   Clear
1:58 AM 38.1 °F 29.8 °F 27.5 °F 66% 30.22 in 10.0 mi North 13.8 mph - N/A   Clear
2:58 AM 36.7 °F 27.6 °F 27.9 °F 70% 30.23 in 10.0 mi North 15.0 mph - N/A   Clear
3:58 AM 35.6 °F 25.9 °F 26.8 °F 70% 30.23 in 10.0 mi North 16.1 mph - N/A   Clear
4:58 AM 33.8 °F 23.9 °F 26.1 °F 73% 30.23 in 10.0 mi North 15.0 mph - N/A   Clear
5:58 AM 32.2 °F 22.7 °F 25.7 °F 77% 30.25 in 10.0 mi North 12.7 mph - N/A   Clear
6:58 AM 33.3 °F 24.6 °F 26.1 °F 75% 30.28 in 10.0 mi North 11.5 mph - N/A   Clear
7:58 AM 37.6 °F 29.1 °F 27.0 °F 66% 30.30 in 10.0 mi NNE 13.8 mph - N/A   Clear
8:58 AM 43.2 °F 35.6 °F 28.0 °F 55% 30.30 in 10.0 mi NNE 16.1 mph - N/A   Clear
9:58 AM 48.2 °F - 29.1 °F 48% 30.30 in 10.0 mi NNE 16.1 mph - N/A   Clear
10:58 AM 52.7 °F - 29.3 °F 41% 30.29 in 10.0 mi NE 15.0 mph 23.0 mph N/A   Clear
11:58 AM 55.2 °F - 27.1 °F 34% 30.28 in 10.0 mi NE 18.4 mph - N/A   Clear
12:58 PM 58.6 °F - 24.3 °F 27% 30.27 in 10.0 mi NE 20.7 mph 26.5 mph N/A   Clear
1:58 PM 59.7 °F - 25.5 °F 27% 30.25 in 10.0 mi NE 21.9 mph 26.5 mph N/A   Clear
2:05 PM 59.0 °F - 26.6 °F 29% 30.22 in 10.0 mi ENE 18.4 mph 28.8 mph N/A   Clear
2:58 PM 60.4 °F - 26.8 °F 28% 30.24 in 10.0 mi NE 11.5 mph 21.9 mph N/A   Clear
3:58 PM 62.2 °F - 23.7 °F 23% 30.22 in 10.0 mi ENE 15.0 mph 24.2 mph N/A   Clear
4:29 PM 62.6 °F - 21.2 °F 20% 30.18 in 10.0 mi NE 18.4 mph 29.9 mph N/A   Clear
4:58 PM 62.4 °F - 21.7 °F 21% 30.21 in 10.0 mi East 15.0 mph 23.0 mph N/A   Clear
5:58 PM 61.5 °F - 18.1 °F 19% 30.21 in 10.0 mi ENE 12.7 mph 19.6 mph N/A   Clear
6:58 PM 60.3 °F - 17.6 °F 19% 30.21 in 10.0 mi ENE 16.1 mph - N/A   Clear
7:58 PM 58.1 °F - 18.3 °F 21% 30.20 in 10.0 mi ENE 10.4 mph - N/A   Clear
8:58 PM 52.3 °F - 22.3 °F 31% 30.21 in 10.0 mi NE 10.4 mph - N/A   Clear
9:58 PM 47.8 °F - 24.3 °F 40% 30.22 in 10.0 mi NE 9.2 mph - N/A   Clear
10:58 PM 46.6 °F - 24.6 °F 42% 30.23 in 10.0 mi NNE 5.8 mph - N/A   Clear
11:58 PM 37.9 °F 35.5 °F 25.2 °F 60% 30.23 in 10.0 mi NE 3.5 mph - N/A   Clear